"Time","Temp","Dewpoint","Humidity","Pressure","Direction","Speed","Gust","Precip","PrecipRate"
"00:04:59","38.3","27.5","64.8","30.30","330","2.3","5.8","0.00","0.00"
"00:09:57","38.2","27.5","65","30.30","345","2.8","8.4","0.00","0.00"
"00:14:56","38.2","27.5","65.2","30.30","329","2.9","8.1","0.00","0.00"
"00:19:58","38.1","27.5","65.4","30.30","338","3.2","7.2","0.00","0.00"
"00:24:56","38.1","27.4","65","30.30","342","3.4","8.4","0.00","0.00"
"00:29:57","38.1","27.4","65","30.30","338","2.7","6","0.00","0.00"
"00:34:59","38.1","27.5","65.4","30.30","347","2.5","7.2","0.00","0.00"
"00:39:59","38","27.6","66","30.30","0","1.3","4.8","0.00","0.00"
"00:44:58","38","28","67.1","30.31","1","1.1","3.6","0.00","0.00"
"00:49:56","37.9","29.2","70.7","30.31","79","1","3.6","0.00","0.00"
"00:54:58","37.7","29.7","72.6","30.31","311","1.4","4.8","0.00","0.00"
"00:59:57","37.5","29.7","73.3","30.32","0","1.3","4.6","0.00","0.00"
"01:04:59","37.3","29.8","74","30.32","13","1.4","4.8","0.00","0.00"
"01:09:57","37.1","29.6","74","30.32","341","1.9","4.8","0.00","0.00"
"01:14:58","37","29.5","74","30.32","345","1.8","6","0.00","0.00"
"01:19:56","36.8","29.3","74","30.32","336","0.9","4.6","0.00","0.00"
"01:24:58","36.7","29.2","74","30.32","3","1.4","4.8","0.00","0.00"
"01:29:57","36.6","29.1","74","30.33","351","1.2","4.8","0.00","0.00"
"01:34:57","36.4","28.9","74","30.33","346","0.5","2.4","0.00","0.00"
"01:39:49","36.3","28.8","74","30.33","348","0.5","2.4","0.00","0.00"
"01:44:56","36.2","28.7","74","30.33","347","0.9","4.8","0.00","0.00"
"01:49:57","36.2","28.7","74","30.33","0","1.2","4.8","0.00","0.00"
"01:54:56","36.1","28.6","74","30.33","112","1","4.6","0.00","0.00"
"01:59:58","36","28.5","74","30.33","73","0.8","4.8","0.00","0.00"
"02:04:56","35.9","28.4","74","30.33","333","0.6","4.6","0.00","0.00"
"02:09:59","35.9","28.3","73.9","30.33","329","0.4","3.6","0.00","0.00"
"02:14:59","35.8","28.3","74","30.33","329","0.7","2.4","0.00","0.00"
"02:19:50","35.7","28.2","74","30.33","329","0.3","2.4","0.00","0.00"
"02:24:56","35.7","28.2","74","30.33","329","0.3","2.4","0.00","0.00"
"02:29:56","35.7","28.2","74","30.33","329","0.7","2.4","0.00","0.00"
"02:34:56","35.6","28.1","74","30.33","329","0","1.2","0.00","0.00"
"02:39:56","35.5","28","74","30.33","329","0","0","0.00","0.00"
"02:44:58","35.5","28","74","30.34","22","0","0","0.00","0.00"
"02:49:56","35.4","27.9","74","30.34","22","0","0","0.00","0.00"
"02:54:59","35.4","27.8","73.7","30.34","22","0","0","0.00","0.00"
"02:59:58","35.3","27.8","74","30.34","20","0","0","0.00","0.00"
"03:04:57","35.3","27.7","73.7","30.34","17","0.1","3.6","0.00","0.00"
"03:09:56","35.2","27.7","74","30.34","17","0.6","3.6","0.00","0.00"
"03:14:57","35.2","27.7","74","30.34","17","0","0","0.00","0.00"
"03:19:59","35.1","27.6","74","30.34","17","0.1","3.6","0.00","0.00"
"03:24:57","35.1","27.6","74","30.34","16","1","4.8","0.00","0.00"
"03:29:59","35","27.5","74","30.34","15","0.5","4.6","0.00","0.00"
"03:34:58","35","27.5","74","30.34","15","0","1.2","0.00","0.00"
"03:39:58","34.9","27.6","74.5","30.34","15","0.1","1.2","0.00","0.00"
"03:44:56","34.8","27.7","75","30.34","15","0","1.2","0.00","0.00"
"03:49:58","34.7","27.6","75","30.34","15","0.2","2.4","0.00","0.00"
"03:54:56","34.6","27.5","75","30.34","15","0.1","2.4","0.00","0.00"
"03:59:59","34.6","27.5","75","30.34","16","0.7","2.4","0.00","0.00"
"04:04:57","34.4","27.4","75.4","30.33","14","0.3","3.6","0.00","0.00"
"04:09:56","34.4","27.3","75","30.33","355","0.4","3.5","0.00","0.00"
"04:14:56","34.4","27.3","75","30.34","355","0","0","0.00","0.00"
"04:19:58","34.3","27.4","75.5","30.34","347","0.4","3.6","0.00","0.00"
"04:24:56","34.3","27.5","76","30.34","346","0.6","2.4","0.00","0.00"
"04:29:58","34.2","27.4","76","30.34","345","0.6","2.4","0.00","0.00"
"04:34:57","34.1","27.3","76","30.34","345","0","0","0.00","0.00"
"04:39:57","34","27.2","76","30.34","345","0","0","0.00","0.00"
"04:44:59","33.9","27.3","76.5","30.34","345","0","0","0.00","0.00"
"04:49:57","33.8","27.4","77","30.34","345","0.2","2.4","0.00","0.00"
"04:54:59","33.7","27.3","77","30.34","345","0","0","0.00","0.00"
"04:59:57","33.5","27.1","77","30.34","345","0","1.2","0.00","0.00"
"05:04:59","33.4","27","77.1","30.34","345","0","0","0.00","0.00"
"05:09:58","33.2","27.1","78","30.34","345","0","0","0.00","0.00"
"05:14:46","33.1","27","78","30.34","345","0.1","2.4","0.00","0.00"
"05:19:57","33","26.9","78","30.34","345","0.1","1.2","0.00","0.00"
"05:24:59","32.8","26.7","78","30.34","345","0","0","0.00","0.00"
"05:29:57","32.7","26.7","78.1","30.35","345","0.2","1.2","0.00","0.00"
"05:34:56","32.6","26.7","78.7","30.35","346","0","0","0.00","0.00"
"05:39:56","32.4","26.6","79","30.35","345","0","0","0.00","0.00"
"05:44:58","32.3","26.5","79","30.35","345","0","0","0.00","0.00"
"05:49:56","32.1","26.3","79","30.35","345","0","0","0.00","0.00"
"05:54:59","32","26.5","80","30.35","345","0","0","0.00","0.00"
"05:59:57","31.8","26.3","80","30.35","345","0","0","0.00","0.00"
"06:04:59","31.6","26.1","80","30.35","346","0","0","0.00","0.00"
"06:09:59","31.3","25.8","80","30.35","345","0","0","0.00","0.00"
"06:14:56","31.1","25.7","80.2","30.35","345","0","0","0.00","0.00"
"06:19:58","30.9","25.7","80.7","30.35","345","0","0","0.00","0.00"
"06:24:57","30.7","25.6","81","30.35","345","0","0","0.00","0.00"
"06:29:58","30.4","25.3","81","30.35","346","0","0","0.00","0.00"
"06:34:56","30.1","25","81","30.35","345","0","0","0.00","0.00"
"06:39:57","29.8","24.9","81.6","30.35","345","0","0","0.00","0.00"
"06:44:59","29.5","24.7","82","30.35","345","0","0","0.00","0.00"
"06:49:57","29.1","24.3","82.1","30.35","345","0","0","0.00","0.00"
"06:54:56","28.8","24.3","83","30.35","345","0","0","0.00","0.00"
"06:59:58","28.6","24.4","84","30.36","346","0","0","0.00","0.00"
"07:04:56","28.4","24.2","84","30.36","346","0","0","0.00","0.00"
"07:09:59","28.1","23.9","84","30.36","345","0","0","0.00","0.00"
"07:14:56","27.9","23.7","84.1","30.36","345","0","0","0.00","0.00"
"07:19:58","27.7","23.8","85","30.36","345","0","0","0.00","0.00"
"07:24:56","27.6","23.7","85","30.36","345","0","0","0.00","0.00"
"07:29:59","27.5","23.8","85.7","30.36","345","0","1.2","0.00","0.00"
"07:34:57","27.4","23.8","86","30.36","345","0","0","0.00","0.00"
"07:39:58","27.4","23.8","86","30.36","345","0","1.2","0.00","0.00"
"07:44:57","27.3","23.7","86","30.37","345","0","1.2","0.00","0.00"
"07:49:59","27.2","23.6","86","30.37","345","0","0","0.00","0.00"
"07:54:58","27.2","23.6","86","30.37","345","0","0","0.00","0.00"
"07:59:57","27.2","23.6","86.2","30.37","345","0","0","0.00","0.00"
"08:04:58","27.3","23.9","87","30.37","344","0.2","6","0.00","0.00"
"08:09:57","27.6","24.2","87","30.37","344","1","5.8","0.00","0.00"
"08:14:57","27.9","24.5","87","30.38","344","0.3","2.4","0.00","0.00"
"08:19:59","28.4","25","87","30.38","344","0.5","2.4","0.00","0.00"
"08:24:57","29","25.4","86.4","30.38","344","0.6","3.6","0.00","0.00"
"08:29:59","29.7","25.9","85.6","30.38","344","1.2","3.6","0.00","0.00"
"08:34:57","30.4","26.1","83.9","30.38","344","1.4","3.6","0.00","0.00"
"08:39:56","31.1","26.4","82.7","30.38","343","2.7","6","0.00","0.00"
"08:44:58","31.5","26.2","80.7","30.38","336","3.3","7.2","0.00","0.00"
"08:49:56","31.9","26.3","79.8","30.38","339","3.2","8.4","0.00","0.00"
"08:54:58","32.2","26.2","78.1","30.38","339","3.9","7.2","0.00","0.00"
"08:59:56","32.5","26","76.6","30.38","340","3.5","7.2","0.00","0.00"
"09:04:57","32.9","26.2","76","30.38","338","1.2","4.8","0.00","0.00"
"09:09:56","33.4","26.3","74.8","30.38","333","1","4.8","0.00","0.00"
"09:14:56","33.6","26.2","74","30.38","334","3.9","8.4","0.00","0.00"
"09:19:57","33.8","26.4","74.2","30.38","340","2","8.4","0.00","0.00"
"09:24:59","34.3","26.5","73","30.38","339","2.5","7.2","0.00","0.00"
"09:29:57","34.5","26.4","72","30.39","332","3.2","7.2","0.00","0.00"
"09:34:58","34.6","26.5","72","30.39","334","3.7","8.4","0.00","0.00"
"09:39:58","34.7","26.6","71.9","30.39","342","3.1","8.4","0.00","0.00"
"09:44:59","35","26.5","71.1","30.39","349","2.9","7.2","0.00","0.00"
"09:49:56","35.2","26.7","71","30.39","333","2.7","10.8","0.00","0.00"
"09:54:58","35.3","26.6","70","30.39","316","3.2","10.4","0.00","0.00"
"09:59:56","35.6","26.7","69.7","30.39","343","2.6","8.4","0.00","0.00"
"10:04:57","35.7","26.6","69.2","30.39","333","4.9","10.8","0.00","0.00"
"10:09:56","35.7","26.9","69.9","30.39","343","4.1","10.4","0.00","0.00"
"10:14:59","36","26.9","69","30.39","344","3.9","12","0.00","0.00"
"10:19:58","35.9","26.5","68.2","30.39","327","5.4","10.8","0.00","0.00"
"10:24:56","36","27.1","69.8","30.39","340","2.7","7.2","0.00","0.00"
"10:29:59","36.5","27.6","69.8","30.39","343","2","9.6","0.00","0.00"
"10:34:57","37.1","27.5","67.9","30.39","347","3.2","9.2","0.00","0.00"
"10:39:56","37.4","27.9","68.3","30.39","6","2.3","6","0.00","0.00"
"10:44:58","37.8","28.1","67.8","30.39","331","2.3","7.2","0.00","0.00"
"10:49:59","38.1","28","66.8","30.39","309","2.8","13.2","0.00","0.00"
"10:54:57","38","27.3","65.1","30.39","299","4.6","10.8","0.00","0.00"
"10:59:59","38.3","27.7","65.3","30.39","338","4.2","13.2","0.00","0.00"
"11:04:56","38.6","27.6","64.4","30.38","343","6.6","15","0.00","0.00"
"11:09:59","38.7","27.7","64.2","30.38","343","3.9","9.6","0.00","0.00"
"11:14:59","38.7","26.8","61.9","30.38","304","4.6","12","0.00","0.00"
"11:19:56","38.5","27","63.2","30.37","314","4.4","12","0.00","0.00"
"11:24:58","39","27.3","62.6","30.37","317","3.9","8.4","0.00","0.00"
"11:29:59","38.9","26.9","61.7","30.37","339","4.2","10.8","0.00","0.00"
"11:34:57","39.3","27.3","62","30.36","337","4.3","13.2","0.00","0.00"
"11:39:57","39.4","27","60.8","30.36","341","6.6","13.2","0.00","0.00"
"11:44:59","39.3","26.9","60.7","30.36","306","3.9","7.2","0.00","0.00"
"11:49:56","39.5","27.1","60.8","30.35","328","4.5","12","0.00","0.00"
"11:54:58","39.7","26.7","59.7","30.35","296","3.9","12","0.00","0.00"
"11:59:59","39.9","27.1","60","30.35","247","3.4","10.8","0.00","0.00"
"12:04:57","40.2","27","59","30.34","340","4.8","10.4","0.00","0.00"
"12:09:59","40.5","26.6","57.5","30.34","344","5.2","13.2","0.00","0.00"
"12:14:58","40.6","26.1","56","30.34","308","3.5","7.2","0.00","0.00"
"12:19:55","40.8","26.3","56.1","30.34","322","4.6","8.4","0.00","0.00"
"12:24:57","41.1","26.2","55.1","30.34","326","4.7","12","0.00","0.00"
"12:29:59","41.4","26.3","54.6","30.34","284","3.3","8.1","0.00","0.00"
"12:34:56","41.3","25.7","53.7","30.33","316","3.8","8.4","0.00","0.00"
"12:39:59","41.4","25.9","53.9","30.33","321","4.9","10.8","0.00","0.00"
"12:44:57","41.6","26.4","54.4","30.33","269","3.7","9.2","0.00","0.00"
"12:49:59","41.8","26.4","54.1","30.32","307","2.8","8.1","0.00","0.00"
"12:54:57","42","26.1","53","30.32","334","3.4","7.2","0.00","0.00"
"12:59:58","41.9","25.8","52.6","30.32","314","3","6","0.00","0.00"
"13:04:56","42.1","26.1","52.8","30.32","337","2.3","7.2","0.00","0.00"
"13:09:59","42.5","26.7","53.2","30.32","316","3.4","9.6","0.00","0.00"
"13:14:59","42.6","26.4","52.4","30.32","339","3.2","7.2","0.00","0.00"
"13:19:57","42.8","26.5","52.2","30.32","335","3.4","10.8","0.00","0.00"
"13:24:59","43.1","25.6","49.9","30.32","343","5.3","13.2","0.00","0.00"
"13:29:57","42.9","25.1","49.2","30.32","334","3.4","12.7","0.00","0.00"
"13:34:59","42.8","25.4","50","30.31","286","2.1","4.8","0.00","0.00"
"13:39:59","43.1","25.7","50.1","30.31","336","2.6","6","0.00","0.00"
"13:44:57","42.9","25.2","49.4","30.31","338","3.5","8.4","0.00","0.00"
"13:49:59","43","25.6","50","30.31","333","1.9","6","0.00","0.00"
"13:54:57","43.4","26.3","50.7","30.31","12","1.9","6","0.00","0.00"
"13:59:59","43.4","25.3","48.7","30.31","331","3.1","7.2","0.00","0.00"
"14:04:57","42.7","24.4","48.1","30.31","318","3.7","7.2","0.00","0.00"
"14:09:56","42.7","25.4","50.1","30.31","333","2.2","8.4","0.00","0.00"
"14:14:59","43.2","25.5","49.4","30.31","342","5.1","10.8","0.00","0.00"
"14:19:57","43.4","25.8","49.6","30.30","345","2.6","6","0.00","0.00"
"14:24:59","43.5","25.1","48","30.30","328","1.5","4.8","0.00","0.00"
"14:29:57","43.8","25.6","48.4","30.30","228","3.3","6","0.00","0.00"
"14:34:56","44","25.8","48.5","30.30","265","2.3","7.2","0.00","0.00"
"14:39:57","44","24.5","46.1","30.30","317","2.5","6","0.00","0.00"
"14:44:59","44","24.9","46.8","30.30","324","3.3","9.6","0.00","0.00"
"14:49:56","44.1","25.1","46.9","30.30","254","1.3","3.6","0.00","0.00"
"14:54:58","44.1","24.3","45.5","30.30","298","2.7","7.2","0.00","0.00"
"14:59:59","43.7","24.3","46.1","30.31","321","3.2","7.2","0.00","0.00"
"15:04:57","43.4","24.5","47","30.31","333","1.7","4.6","0.00","0.00"
"15:09:56","43.5","24.8","47.4","30.31","294","2.6","8.4","0.00","0.00"
"15:14:56","43.4","24.4","46.8","30.31","336","4.1","12","0.00","0.00"
"15:19:58","43.4","24.3","46.6","30.30","321","2.5","4.8","0.00","0.00"
"15:24:56","43.6","24.8","47.2","30.30","304","1.8","3.6","0.00","0.00"
"15:29:57","43.6","24.1","45.8","30.30","322","3.2","8.4","0.00","0.00"
"15:33:29","43.5","23.6","45.2","30.30","340","3","7.2","0.00","0.00"
"15:39:58","43","23","44.9","30.30","320","3.1","7.2","0.00","0.00"
"15:44:57","42.6","23.2","46","30.30","309","1.7","4.8","0.00","0.00"
"15:49:56","42.3","23","46.1","30.30","336","2.6","7.2","0.00","0.00"
"15:54:58","42.2","23.2","46.6","30.30","324","2","3.6","0.00","0.00"
"15:59:56","42.2","23","46.2","30.30","325","1.2","4.8","0.00","0.00"
"16:04:59","42.2","22.5","45.2","30.30","324","2.6","7.2","0.00","0.00"
"16:09:58","42.2","22.4","45","30.30","319","2.7","7.2","0.00","0.00"
"16:14:58","42.1","22.1","44.7","30.31","322","2.8","6","0.00","0.00"
"16:19:56","41.9","22.1","45","30.31","316","2","3.6","0.00","0.00"
"16:24:58","41.7","21.8","44.9","30.31","318","2.3","4.8","0.00","0.00"
"16:29:57","41.4","22.1","45.8","30.31","329","0.2","2.3","0.00","0.00"
"16:34:59","41.2","22.2","46.4","30.30","329","0.2","2.4","0.00","0.00"
"16:39:59","40.8","21.7","46.1","30.30","329","1.7","3.6","0.00","0.00"
"16:44:57","40.5","21.8","47","30.31","329","0.2","1.2","0.00","0.00"
"16:49:58","40.2","22.1","48","30.31","329","0.2","1.2","0.00","0.00"
"16:54:59","39.8","22","48.6","30.31","329","0","0","0.00","0.00"
"16:59:58","39.3","22","49.8","30.31","329","0","0","0.00","0.00"
"17:04:57","38.7","21.6","50","30.31","329","0","0","0.00","0.00"
"17:09:56","38.2","21.5","50.7","30.31","329","0","0","0.00","0.00"
"17:14:58","37.8","21.8","52.2","30.31","329","0","0","0.00","0.00"
"17:19:58","37.2","21.9","53.5","30.31","329","0","0","0.00","0.00"
"17:24:57","36.7","21.7","54.1","30.31","329","0","0","0.00","0.00"
"17:29:56","36.3","21.9","55.6","30.31","329","0","0","0.00","0.00"
"17:34:58","35.8","21.9","56.7","30.31","329","0","0","0.00","0.00"
"17:39:56","35.3","22","57.9","30.31","329","0","0","0.00","0.00"
"17:44:59","34.8","22.1","59.5","30.31","329","0","0","0.00","0.00"
"17:49:58","34.3","21.9","60.2","30.31","329","0","0","0.00","0.00"
"17:54:57","33.9","21.9","61","30.31","329","0","0","0.00","0.00"
"17:59:59","33.5","21.8","62","30.31","329","0","0","0.00","0.00"
"18:04:58","33","21.7","62.8","30.31","329","0","0","0.00","0.00"
"18:09:57","32.6","21.6","63.4","30.31","329","0.1","1.2","0.00","0.00"
"18:14:59","32.3","21.8","64.9","30.31","329","0","1.2","0.00","0.00"
"18:19:57","32","21.7","65.4","30.31","329","0","0","0.00","0.00"
"18:24:57","31.6","21.9","67","30.31","329","0","0","0.00","0.00"
"18:29:56","31.1","21.4","67","30.31","329","0","0","0.00","0.00"
"18:34:56","30.9","21.6","68.1","30.31","329","0","0","0.00","0.00"
"18:39:56","30.6","21.6","69","30.31","329","0","0","0.00","0.00"
"18:44:59","30.4","21.4","69","30.31","329","0","0","0.00","0.00"
"18:49:58","30.1","21.5","69.9","30.31","329","0.2","2.4","0.00","0.00"
"18:54:58","30","21.5","70.5","30.31","329","1.1","2.4","0.00","0.00"
"18:59:56","29.8","21.4","70.7","30.31","329","0","1.2","0.00","0.00"
"19:04:59","29.7","21.4","71","30.30","329","0.9","2.4","0.00","0.00"
"19:09:58","29.4","21.2","71","30.30","329","0","1.2","0.00","0.00"
"19:14:56","29.2","21.3","72","30.30","329","0.9","1.2","0.00","0.00"
"19:19:59","28.9","21","72","30.30","329","0.1","1.2","0.00","0.00"
"19:24:58","28.6","21","72.9","30.30","329","0","0","0.00","0.00"
"19:29:56","28.3","20.9","73.5","30.30","329","0","0","0.00","0.00"
"19:34:59","28","20.9","74.5","30.30","329","0.3","1.2","0.00","0.00"
"19:39:57","27.7","20.9","75.5","30.30","329","0","1.2","0.00","0.00"
"19:44:57","27.5","20.9","76","30.30","329","0","0","0.00","0.00"
"19:49:56","27.3","20.7","76","30.30","329","0","0","0.00","0.00"
"19:54:59","27.1","20.7","76.6","30.30","329","0","0","0.00","0.00"
"19:59:58","27","20.7","77","30.30","329","0","0","0.00","0.00"
"20:04:56","26.8","20.6","77","30.30","329","0","0","0.00","0.00"
"20:09:55","26.7","20.5","77","30.30","329","0.1","2.4","0.00","0.00"
"20:14:57","26.6","20.4","77","30.30","329","0.4","2.4","0.00","0.00"
"20:19:55","26.5","20.3","77","30.29","329","0","0","0.00","0.00"
"20:24:58","26.3","20.4","77.9","30.29","329","0","0","0.00","0.00"
"20:29:57","26.1","20.2","78","30.29","329","0","0","0.00","0.00"
"20:34:59","25.9","20","78","30.28","329","0","0","0.00","0.00"
"20:39:56","25.8","19.9","78","30.28","329","0","0","0.00","0.00"
"20:44:56","25.6","19.9","78.7","30.28","329","0","0","0.00","0.00"
"20:49:58","25.4","19.8","79","30.28","329","0","0","0.00","0.00"
"20:54:58","25.3","19.7","79","30.28","329","0","0","0.00","0.00"
"20:59:57","25.1","19.5","79","30.28","329","0","0","0.00","0.00"
"21:04:56","24.9","19.3","79","30.27","329","0","0","0.00","0.00"
"21:09:58","24.8","19.4","79.9","30.27","329","0","0","0.00","0.00"
"21:14:56","24.5","19.3","80.3","30.27","329","0","0","0.00","0.00"
"21:19:58","24.4","19.4","81","30.27","329","0","0","0.00","0.00"
"21:24:57","24.4","19.4","81.2","30.27","329","0","0","0.00","0.00"
"21:29:55","24.4","19.5","81.4","30.27","329","0","0","0.00","0.00"
"21:34:59","24.3","19.6","82","30.26","329","0","0","0.00","0.00"
"21:39:59","24.2","19.5","82","30.26","329","0","0","0.00","0.00"
"21:44:59","24.1","19.4","82","30.26","329","0","0","0.00","0.00"
"21:49:58","24","19.3","82","30.26","329","0","1.2","0.00","0.00"
"21:54:59","23.9","19.2","82","30.26","329","0","1.2","0.00","0.00"
"21:59:58","24","19.3","82","30.26","329","0","1.2","0.00","0.00"
"22:04:56","23.9","19.2","82","30.26","329","0","0","0.00","0.00"
"22:09:56","23.8","19.1","82","30.26","329","0","0","0.00","0.00"
"22:14:56","23.6","19.1","82.7","30.26","329","0","0","0.00","0.00"
"22:19:59","23.4","19","83","30.26","329","0","1.2","0.00","0.00"
"22:24:58","23.4","19","83","30.26","329","0","0","0.00","0.00"
"22:29:56","23.4","19.2","83.5","30.26","329","0","0","0.00","0.00"
"22:34:58","23.4","19","83","30.26","329","0","0","0.00","0.00"
"22:39:59","23.4","19","83","30.26","329","0","0","0.00","0.00"
"22:44:57","23.1","18.7","83","30.26","329","0","0","0.00","0.00"
"22:49:56","23","18.8","83.7","30.25","329","0.2","2.4","0.00","0.00"
"22:54:58","23","18.9","84","30.25","329","0.4","2.4","0.00","0.00"
"22:59:57","23","18.9","84","30.25","329","0","0","0.00","0.00"
"23:04:59","22.9","18.8","84","30.25","329","0","0","0.00","0.00"
"23:09:58","22.7","18.6","84","30.25","329","0","0","0.00","0.00"
"23:14:59","22.5","18.4","84","30.25","329","0","0","0.00","0.00"
"23:19:58","22.5","18.4","84","30.25","329","0","0","0.00","0.00"
"23:24:57","22.4","18.6","84.9","30.25","329","0","1.2","0.00","0.00"
"23:29:59","22.5","18.6","84.7","30.25","329","0","0","0.00","0.00"
"23:34:58","22.5","18.4","84","30.25","329","0","0","0.00","0.00"
"23:39:59","22.4","18.3","84","30.25","329","0","0","0.00","0.00"
"23:44:58","22.3","18.3","84.3","30.25","329","0","0","0.00","0.00"
"23:49:56","22.1","18.3","84.9","30.25","329","0","0","0.00","0.00"
"23:54:58","22","18.2","85","30.25","329","0","0","0.00","0.00"
